Wind_Speed
20 21 23 25 26 25 25 27 27 28 28 22 18 12 3 2 2 5 9 7 6 4 1 3 2 2 4 6 9 10 8 9 9 11 14 10 3 4 4 4 6 5 4 6 8 8 6 3 0 5 5 3 4 1 5 7 5 3 1 2 4 1 2 2 2 4 3 3 5 7 11 11 7 6 7 6 4 2 3 6 4 2 0 0 3 2 2
20 21 23 25 26 26 25 27 27 26 25 20 13 7 2 3 3 4 8 10 8 2 2 4 3 4 5 7 8 8 8 7 8 8 11 10 5 5 6 5 5 5 5 7 10 9 6 3 1 4 4 1 3 3 6 7 3 2 1 1 2 2 1 2 3 3 4 5 4 4 7 6 3 4 7 9 10 9 3 2 5 3 5 6 5 2 2
20 21 23 25 26 26 26 27 26 25 24 20 9 3 2 3 3 2 4 6 4 3 1 3 4 4 5 7 7 8 6 6 8 10 11 10 7 4 4 6 7 6 6 7 9 9 7 5 1 3 2 2 4 5 6 7 2 2 2 1 1 1 1 2 2 1 2 2 2 1 2 2 2 4 9 13 13 12 5 2 5 2 2 5 5 4 3
20 20 23 24 25 26 27 27 26 24 24 21 8 4 2 2 2 1 1 1 4 3 1 3 3 3 4 5 6 8 7 6 7 9 9 10 10 5 3 5 6 6 7 7 6 8 10 8 4 4 2 0 2 4 9 9 6 4 4 4 2 3 1 1 2 3 4 5 3 2 1 2 4 6 11 13 12 11 7 4 3 0 1 4 3 9 9
20 20 22 24 25 27 28 29 27 22 22 20 7 4 2 2 1 1 1 2 3 3 3 4 3 3 4 2 4 7 7 6 7 7 7 9 11 7 4 6 7 7 8 5 5 8 8 8 8 6 5 4 3 2 5 8 7 6 2 3 2 4 2 2 1 3 4 5 4 2 1 4 5 6 10 12 11 12 10 5 2 3 2 3 3 10 11
20 20 22 23 25 27 28 30 28 22 19 15 4 3 2 1 1 1 2 1 1 2 2 2 3 5 4 1 4 6 7 6 5 5 6 8 10 7 5 9 11 11 9 3 4 8 7 7 7 6 6 6 5 4 4 5 4 2 1 1 3 2 2 4 4 5 5 6 5 4 3 3 5 5 7 10 11 12 10 3 3 2 4 4 6 9 11
20 20 21 23 25 27 28 30 29 24 19 10 2 1 3 1 1 2 2 1 2 4 2 1 5 5 3 2 3 5 7 8 5 4 5 5 8 7 5 9 11 10 9 5 5 6 4 4 5 4 5 6 4 4 3 4 7 8 4 3 4 2 1 1 3 6 7 7 8 7 5 4 5 5 6 9 10 9 7 4 5 9 9 5 9 14 10
19 19 21 22 24 26 27 29 30 27 19 11 6 4 4 2 1 2 2 2 2 6 3 2 5 4 4 3 3 5 7 8 6 6 5 4 6 7 7 9 7 6 7 7 6 5 4 4 5 4 4 4 3 2 1 0 4 5 3 3 4 2 2 4 3 3 4 5 9 9 6 5 5 5 6 8 8 7 6 3 5 9 9 7 10 13 8
19 19 20 21 23 25 26 28 29 28 21 13 6 6 8 7 7 5 2 4 3 2 2 3 4 3 3 2 3 4 6 8 6 5 6 6 6 7 8 9 7 4 7 7 6 7 8 7 7 6 5 4 5 4 1 4 2 1 1 2 4 2 1 4 5 2 4 4 1 4 6 6 6 6 7 7 3 4 4 2 2 5 7 6 7 7 4
19 19 20 20 21 23 25 26 27 28 25 16 6 6 11 11 10 9 3 3 5 1 4 5 4 1 2 1 2 3 3 7 6 3 5 8 8 8 8 7 6 4 6 7 7 9 10 10 9 6 6 7 9 8 4 6 6 3 2 2 2 2 2 3 4 3 4 8 7 4 4 6 5 5 8 10 4 5 7 4 4 7 8 7 4 3 4
19 20 19 19 20 22 23 24 25 26 27 20 6 5 10 10 6 5 2 1 4 3 4 4 2 1 1 1 0 2 3 5 5 3 3 5 6 7 7 6 5 3 4 6 7 9 11 12 11 8 7 8 9 9 7 4 6 4 3 3 2 2 5 3 3 2 3 7 6 5 5 4 1 3 7 11 5 7 9 6 7 7 5 6 6 5 5
19 19 19 19 19 20 21 22 23 24 26 22 8 5 12 14 6 4 2 1 3 5 4 3 4 4 4 3 1 0 1 3 4 2 2 3 4 5 5 4 3 3 5 8 9 10 10 11 10 9 8 10 10 8 7 3 4 4 3 5 4 3 4 4 3 3 1 4 4 5 2 1 1 3 8 13 10 6 10 8 7 7 7 10 12 9 8
19 19 18 18 18 19 20 21 21 22 23 23 13 6 14 18 8 2 3 3 4 5 4 5 7 9 9 8 5 1 2 1 2 1 2 2 3 4 3 3 3 4 6 8 10 10 7 6 4 3 5 6 6 2 10 11 9 8 6 4 5 4 3 3 2 2 1 0 3 2 3 2 2 5 8 11 11 8 8 9 9 9 4 7 11 11 10
19 18 18 18 18 18 19 20 20 21 21 22 16 10 15 19 10 3 2 2 2 5 5 5 7 10 9 7 7 5 3 2 1 2 2 2 2 2 3 3 3 4 6 6 7 6 3 3 4 3 4 4 2 3 8 8 9 12 11 7 4 5 3 2 1 1 1 2 2 2 2 2 3 3 5 4 4 6 3 4 6 11 8 3 11 14 12
19 18 18 17 17 17 18 19 19 20 20 20 16 12 16 20 14 6 2 1 2 4 6 4 5 8 8 7 8 7 5 5 4 3 3 4 2 2 3 2 2 4 5 4 3 3 2 2 3 3 3 3 3 3 4 3 5 9 10 9 7 4 2 2 2 0 0 3 2 2 2 1 2 3 5 2 2 6 5 3 3 7 7 5 10 14 12
18 18 18 17 16 17 17 18 18 19 19 19 16 13 15 20 19 12 4 0 3 4 5 6 6 6 6 6 8 7 4 5 7 4 3 2 4 4 2 2 4 4 4 3 2 2 3 2 2 3 2 1 1 1 2 2 3 4 7 11 12 9 5 3 4 1 2 3 2 1 2 1 2 5 6 3 2 6 6 4 3 2 2 6 8 10 10
18 18 18 17 16 17 17 17 17 17 18 19 18 13 13 19 22 16 4 1 5 4 4 7 7 5 5 4 6 6 4 4 5 4 4 4 6 8 8 5 6 6 4 3 3 3 3 2 2 4 1 2 1 2 1 1 2 4 5 8 10 9 6 5 4 2 2 2 2 2 2 1 3 7 8 5 1 3 3 4 1 3 4 7 7 8 8
17 17 17 16 15 16 16 16 17 16 17 18 16 12 12 17 22 18 7 1 4 3 4 8 7 4 5 5 4 4 4 5 4 3 4 4 4 8 9 5 5 6 5 4 3 2 2 1 2 4 1 3 1 2 1 1 1 3 3 4 5 5 3 4 4 2 2 2 3 2 1 1 4 7 9 7 2 2 3 1 2 1 6 8 8 9 8
17 16 16 15 15 15 15 16 16 15 16 18 16 12 12 16 21 21 12 3 2 4 5 8 9 6 6 6 5 4 5 5 4 4 4 4 5 11 9 3 4 5 4 4 3 2 2 2 1 2 2 1 2 2 2 2 2 3 4 4 3 2 2 3 3 1 1 2 3 2 1 2 6 8 7 5 2 3 2 1 2 6 8 9 10 11 9
17 16 15 15 14 13 13 14 15 15 14 17 17 12 10 13 17 18 13 5 1 3 4 6 9 8 6 6 5 5 5 5 4 5 4 3 7 9 6 4 5 5 4 5 4 3 3 4 4 3 3 1 2 1 3 4 4 4 3 4 2 1 1 2 2 1 1 3 3 2 1 3 9 7 4 5 4 3 2 4 6 8 7 8 10 9 9
16 15 15 14 13 12 12 12 14 14 13 15 16 11 9 14 15 14 15 10 1 3 3 4 8 10 8 7 7 6 7 6 4 4 3 4 5 4 3 3 5 4 3 4 4 3 3 3 3 3 3 2 2 2 2 3 4 4 4 4 3 4 2 2 1 1 1 3 2 2 2 3 8 6 4 4 4 4 4 6 7 7 7 6 7 7 7
16 15 14 13 12 12 11 10 12 13 12 14 15 11 10 16 17 14 15 11 2 4 2 3 7 12 11 10 9 9 9 8 7 6 4 4 4 3 4 3 5 3 1 2 3 2 4 3 3 3 3 3 3 4 4 3 3 4 5 4 3 3 5 5 3 2 3 3 3 3 4 5 7 7 6 6 8 8 9 9 8 7 6 6 6 8 8
15 15 14 12 11 11 11 10 10 11 11 12 15 13 12 14 16 16 14 7 2 4 4 3 5 9 9 10 11 9 8 9 9 9 8 5 3 3 4 3 3 3 2 2 1 1 3 3 2 1 3 3 3 3 5 4 3 3 4 4 3 4 7 7 4 5 6 6 5 5 6 6 7 8 8 8 9 9 9 10 8 6 6 6 7 9 9
14 15 13 12 10 10 10 9 8 8 8 9 11 13 12 11 13 16 14 7 3 1 2 3 5 3 3 7 9 8 9 9 9 9 10 9 5 3 2 2 1 2 4 4 3 2 1 2 2 2 3 3 3 3 4 4 3 2 4 3 2 3 5 5 4 4 4 4 5 5 6 6 7 8 8 8 9 8 7 7 7 6 7 7 8 9 8
14 15 13 11 10 9 9 8 7 6 6 7 9 11 11 11 13 14 10 5 2 2 2 3 2 1 2 6 6 8 10 10 9 9 9 10 8 2 3 5 4 3 4 6 3 3 3 2 2 3 3 2 3 4 3 3 3 4 4 3 2 3 4 4 4 4 4 5 5 5 6 6 6 7 7 7 7 7 7 7 6 7 8 7 8 8 6
14 14 14 11 9 8 8 8 7 6 5 5 6 9 10 10 12 12 8 4 3 0 2 1 2 2 6 6 5 8 11 10 10 9 9 10 8 5 6 7 4 3 4 4 3 4 3 3 4 4 2 2 2 2 1 2 3 5 4 3 2 3 4 3 4 5 5 5 6 6 6 6 6 7 7 6 5 6 6 6 6 7 7 7 8 8 7
13 13 13 11 9 7 7 7 6 6 4 3 3 6 8 8 9 10 9 6 3 1 1 2 1 3 5 5 5 9 11 10 10 10 9 9 8 7 9 9 4 3 4 4 3 3 3 4 4 3 2 2 2 2 1 2 4 5 4 4 3 4 5 3 4 5 3 3 5 5 5 4 4 5 6 7 6 6 6 6 6 6 6 6 7 8 9
13 12 12 11 9 7 6 5 5 5 5 4 4 4 6 7 8 9 8 7 5 1 1 2 1 1 2 4 5 9 10 10 9 9 8 8 8 8 8 7 5 4 5 4 3 3 4 3 3 2 1 2 2 3 3 2 5 5 3 3 3 4 4 3 4 5 3 3 4 5 5 4 5 5 5 5 5 6 6 6 6 6 6 7 6 6 6
13 12 11 10 9 6 5 4 4 4 6 7 5 4 3 5 7 9 8 7 6 2 2 2 1 1 1 2 5 6 7 8 7 5 5 6 7 8 8 7 5 4 4 2 3 3 2 2 1 1 1 1 1 2 4 4 5 3 1 2 3 4 5 6 7 6 4 3 4 5 5 5 5 6 6 6 6 7 6 6 6 6 8 10 8 6 6
11 11 11 9 8 6 4 3 3 4 8 10 6 3 1 2 5 10 9 6 5 4 1 1 1 0 1 3 4 6 5 5 4 5 7 6 5 5 8 7 4 4 4 3 4 3 1 1 2 1 1 1 2 1 3 3 4 2 3 5 5 6 6 7 7 6 5 5 6 6 6 5 5 7 7 7 10 11 7 7 9 9 10 13 11 9 11
10 10 10 8 7 4 2 1 1 4 9 11 6 1 0 0 4 11 10 6 4 3 1 0 0 1 0 1 1 3 5 3 3 3 8 8 4 4 6 5 4 5 4 2 3 3 2 1 2 1 2 3 3 1 2 3 3 2 4 7 6 6 6 6 6 6 6 6 7 7 6 5 5 6 5 5 11 13 8 7 11 12 13 14 13 11 10
10 10 9 7 5 3 0 1 1 3 7 8 5 2 2 1 6 11 10 6 3 2 0 1 1 0 0 1 1 1 4 4 1 1 4 6 4 4 4 3 2 2 2 1 1 1 0 1 1 1 2 2 2 1 3 4 3 2 4 7 6 6 6 5 5 5 5 6 7 6 5 4 5 6 4 4 9 13 11 9 12 13 13 12 12 11 7
10 9 8 5 2 0 2 2 2 0 2 3 2 1 0 3 7 9 8 5 4 3 1 1 1 1 1 1 2 1 4 5 2 2 1 4 3 3 2 1 2 1 1 2 1 1 0 1 2 1 2 2 2 2 2 2 4 4 6 7 6 6 6 6 5 6 6 7 6 5 4 4 5 7 7 6 8 10 11 12 13 12 10 9 9 9 9
9 8 5 2 1 2 2 2 2 1 3 2 1 1 3 5 6 7 6 5 4 3 2 0 0 1 1 1 2 2 3 3 1 2 1 4 3 3 2 2 1 2 2 1 0 1 2 2 2 2 1 2 2 2 1 0 4 7 8 7 6 7 6 5 5 5 6 6 6 6 5 5 6 7 5 5 7 9 9 11 12 9 6 5 5 7 10
8 5 1 2 3 4 2 2 1 2 3 2 1 2 3 5 5 3 3 3 3 2 2 1 0 1 1 2 1 4 4 3 2 2 1 1 2 2 1 2 2 1 2 2 1 2 1 1 0 2 1 1 2 1 0 1 4 7 7 6 6 7 5 2 2 4 5 5 5 5 4 4 4 4 4 4 5 6 6 7 8 7 6 5 3 4 6
5 3 1 3 4 3 1 0 0 1 1 2 3 4 5 5 4 1 1 1 1 1 1 1 1 1 1 3 1 4 5 3 2 2 2 2 2 2 1 3 2 1 2 0 3 2 1 2 0 2 2 1 0 1 3 6 7 7 6 5 4 5 5 5 5 5 6 6 5 5 5 4 3 2 5 5 5 5 5 5 6 7 6 4 2 4 6
3 1 3 4 3 1 1 2 1 1 1 3 4 5 4 3 2 1 1 2 3 3 2 1 1 2 1 3 1 3 4 2 1 2 2 2 1 2 1 2 1 2 2 3 2 1 2 1 2 1 1 2 1 3 6 8 7 6 6 6 5 4 3 4 6 7 7 6 5 5 3 1 5 3 3 4 4 4 6 6 6 6 5 4 5 5 4
2 4 4 2 1 1 1 2 1 1 2 3 4 4 2 1 1 1 1 1 2 3 1 1 2 3 3 3 1 3 3 2 2 3 2 1 1 2 2 1 0 1 2 2 1 2 2 1 1 1 1 2 3 5 6 7 6 6 6 6 5 6 5 2 5 8 6 4 4 4 2 2 4 2 1 0 2 3 6 8 7 5 4 7 8 6 5
3 3 0 2 2 1 1 1 1 3 2 1 2 1 1 1 1 0 1 1 1 1 1 2 2 3 4 4 2 3 3 2 2 3 2 1 1 1 1 1 1 1 2 1 3 2 2 2 1 1 2 4 5 5 5 6 6 6 6 6 6 6 7 5 2 5 6 5 6 6 2 3 2 1 2 1 2 1 5 9 9 4 4 7 10 9 8
3 1 2 1 1 1 2 2 3 4 3 1 1 0 0 0 1 0 0 0 1 0 1 1 0 1 2 3 2 3 3 3 2 1 1 1 0 0 1 1 0 1 2 1 2 1 1 2 2 3 2 2 3 4 5 6 6 6 6 7 8 9 9 9 6 0 7 9 9 9 8 6 2 4 4 3 5 5 1 5 8 8 9 11 11 9 7
0 2 3 1 1 1 2 3 2 1 1 1 0 0 0 1 1 0 1 0 0 1 1 1 1 1 2 3 3 2 3 3 2 1 1 1 0 0 1 1 1 1 2 1 1 1 1 1 2 2 0 1 1 4 6 6 6 7 6 6 8 10 10 10 11 7 2 7 6 3 2 5 7 7 6 5 5 4 3 1 4 8 12 13 9 6 6
1 2 3 4 2 2 2 1 1 1 0 1 1 1 0 0 1 1 1 0 1 1 0 1 1 2 2 2 2 1 1 3 2 1 1 1 1 0 1 1 1 1 1 1 2 2 1 1 2 2 0 1 2 5 6 6 6 7 7 6 8 9 9 10 10 8 3 8 7 5 4 7 7 4 4 3 2 4 4 3 3 6 8 8 6 6 9
1 2 3 3 1 2 2 1 1 0 1 1 1 1 1 1 1 0 1 1 0 1 0 1 0 1 2 2 1 2 1 1 1 1 1 1 1 1 1 1 1 1 1 1 1 1 1 1 2 1 1 2 3 5 5 5 5 6 7 7 8 8 8 10 12 10 6 10 9 5 5 5 4 3 4 1 4 5 3 5 4 3 3 2 1 4 11
2 1 1 1 1 1 1 1 1 0 1 0 1 1 1 2 1 2 2 1 0 1 0 1 1 2 1 1 0 2 1 1 1 1 1 1 1 1 1 1 1 0 1 1 1 1 1 2 2 0 1 1 3 4 5 5 6 5 5 7 9 8 6 7 10 11 9 7 5 3 3 2 0 2 2 2 5 2 6 9 5 2 2 3 4 3 9
2 1 1 1 2 1 0 1 1 1 1 1 2 1 1 2 3 3 2 1 1 1 1 2 4 4 1 1 1 1 0 0 1 1 0 1 2 1 0 0 1 1 1 1 1 1 1 1 2 3 3 4 4 5 5 5 5 5 4 5 8 9 7 5 5 5 6 8 9 8 7 4 0 3 3 3 2 2 6 7 6 5 4 4 6 6 6
1 1 2 2 1 2 0 1 1 1 1 2 1 2 3 4 4 3 2 2 2 3 3 3 4 4 2 1 0 1 0 1 1 0 1 2 1 0 0 1 1 1 1 1 2 1 1 1 3 4 5 5 5 5 5 5 5 5 5 3 4 5 6 6 4 3 3 1 6 9 11 10 6 2 2 3 1 1 3 5 7 9 10 11 10 9 7
2 1 1 1 0 1 1 1 2 2 0 2 3 4 5 5 4 3 3 3 3 4 4 4 3 3 2 1 1 1 1 1 1 0 1 2 0 0 1 2 1 0 0 1 1 1 1 1 3 4 4 4 5 6 5 5 5 5 5 4 3 2 3 2 3 4 7 4 1 5 9 10 8 5 5 6 4 3 4 4 5 7 9 11 9 6 4
1 0 0 0 1 1 2 3 3 1 3 4 4 4 4 4 4 4 4 4 4 4 4 3 3 3 2 1 1 0 0 1 1 0 1 1 0 1 2 1 1 1 1 1 1 1 1 2 1 4 4 3 4 4 4 4 5 5 4 4 3 3 2 2 2 2 4 4 2 3 7 9 8 7 7 6 5 5 5 5 4 5 5 4 5 5 6
2 0 0 1 1 2 3 2 2 3 4 3 3 4 5 5 4 4 3 3 4 4 3 2 2 1 2 1 1 0 0 1 1 0 1 1 1 1 1 0 1 1 1 1 2 1 2 2 2 0 4 3 2 3 3 1 2 1 3 4 4 4 4 4 4 5 7 8 8 6 5 6 6 7 8 8 8 9 8 8 8 8 7 6 6 7 8
1 0 1 1 2 3 3 2 3 3 3 4 4 4 4 5 4 3 3 2 3 3 2 2 2 1 1 1 1 1 1 1 1 0 0 1 1 1 1 1 1 1 1 1 2 1 2 2 2 1 3 3 3 4 4 2 2 4 6 6 6 6 6 6 6 8 10 11 12 11 11 10 8 5 2 4 9 11 7 6 10 13 10 8 8 7 7
0 1 2 2 2 2 1 3 3 3 4 4 4 3 4 4 4 2 3 3 3 3 1 0 1 1 0 0 0 0 0 1 1 0 0 0 0 1 1 1 0 1 1 1 1 1 2 4 4 3 4 5 4 4 4 6 7 7 8 8 7 6 6 8 9 10 10 11 12 12 12 12 12 11 9 8 10 11 9 9 11 11 8 8 9 9 9
1 1 2 3 3 2 2 3 2 2 4 4 3 2 3 4 3 2 2 3 2 1 0 0 1 1 0 0 0 1 0 0 0 1 1 1 1 0 1 1 3 3 1 1 2 3 4 3 2 2 2 5 5 3 5 8 10 8 9 11 7 2 2 6 11 13 11 8 11 13 13 14 14 14 13 13 12 12 11 11 9 6 5 5 7 8 9
Wind_Direction
342 344 348 351 352 353 356 357 359 1 359 357 357 350 301 249 305 163 158 172 179 162 300 313 314 281 291 296 297 301 303 306 316 321 313 305 332 4 334 325 334 335 346 339 318 302 295 307 215 165 164 189 208 180 39 34 23 29 68 300 308 7 31 355 318 306 335 15 1 26 36 21 15 26 19 16 7 16 157 172 165 131 170 47 77 101 256
342 346 350 353 354 355 356 358 360 2 2 360 352 337 290 288 291 180 175 190 186 146 11 334 317 309 324 329 320 311 301 304 320 324 317 318 343 360 339 333 330 330 352 341 316 300 289 307 32 141 153 189 219 184 78 68 45 360 128 213 287 323 25 39 23 353 344 338 340 17 28 28 24 357 16 25 14 10 16 135 110 122 187 159 130 164 206
344 349 352 354 355 356 356 357 359 1 1 1 353 297 295 297 271 176 182 190 154 88 353 322 335 336 343 336 322 315 312 324 337 329 316 316 322 330 332 334 333 334 342 325 310 320 328 320 8 98 119 152 200 197 130 104 78 299 278 229 96 96 167 94 85 141 188 232 241 247 323 9 12 354 21 29 21 18 14 112 91 82 183 133 127 147 131
345 350 354 355 356 356 357 357 358 360 359 357 343 241 274 304 286 21 13 43 69 78 317 8 22 351 348 335 325 336 338 336 342 336 329 330 329 322 309 324 337 338 328 316 313 329 332 333 18 49 15 71 207 192 148 145 178 213 283 314 55 76 6 66 129 192 190 189 186 189 183 73 39 12 28 34 28 28 37 72 78 352 64 64 121 142 128
348 352 355 356 356 357 358 358 357 359 358 353 336 219 250 288 295 34 354 342 30 47 10 27 43 353 360 350 330 349 350 341 347 348 345 346 345 345 343 348 3 352 327 323 332 328 335 6 30 27 351 340 321 289 136 142 167 173 212 314 72 81 6 313 272 252 223 198 174 148 93 74 58 34 35 39 37 40 52 65 284 264 99 79 147 132 120
351 355 357 357 358 360 360 0 0 359 354 349 329 210 260 248 175 88 137 206 24 53 357 12 45 17 14 9 336 352 2 2 2 344 343 0 4 3 351 354 13 8 347 359 11 346 0 28 20 11 1 351 335 343 41 61 43 59 121 64 74 89 204 214 216 217 208 192 163 136 126 101 75 56 51 52 49 50 60 56 309 351 101 152 158 115 107
353 356 359 358 0 3 2 4 6 1 355 1 83 180 326 354 24 18 68 124 164 164 197 140 77 31 360 19 354 346 2 12 13 353 358 11 7 14 7 353 4 8 358 31 50 10 10 12 350 352 360 343 320 337 18 28 9 11 25 44 44 27 269 252 223 218 204 181 166 157 149 141 132 125 97 79 72 69 70 43 21 51 62 89 112 99 87
354 358 1 360 2 6 6 8 10 8 10 28 63 46 11 5 332 341 2 330 213 172 173 120 101 43 356 27 7 344 2 10 2 360 22 31 360 9 18 358 353 5 10 30 44 15 356 330 314 319 342 331 293 310 50 47 2 18 34 17 30 40 312 351 357 258 239 193 169 161 154 151 147 134 102 85 88 88 80 53 44 59 48 41 85 98 87
357 360 2 2 4 8 9 11 12 15 23 30 26 17 12 358 346 358 4 309 297 155 91 56 88 51 351 37 24 357 356 359 357 355 9 23 9 359 6 360 353 5 18 22 9 346 331 307 293 296 309 298 278 279 188 154 149 91 96 31 42 67 333 1 32 22 314 320 95 136 134 118 87 55 27 10 36 108 110 102 82 104 105 75 64 86 107
358 1 4 4 5 8 11 14 13 16 24 27 8 346 3 2 352 0 15 278 304 48 84 51 60 31 308 6 43 29 356 353 5 9 357 5 1 355 360 360 354 360 12 3 334 316 308 297 289 283 272 265 272 279 244 169 158 146 118 103 103 122 113 39 38 45 333 335 352 13 80 82 53 13 342 323 300 134 113 97 107 122 128 121 104 115 130
357 1 4 4 6 9 11 15 15 16 19 20 3 306 355 5 332 335 32 234 317 20 80 59 39 244 219 153 359 26 27 8 16 33 360 345 340 348 359 358 353 343 328 322 305 293 291 285 276 265 261 267 273 280 271 205 154 138 127 122 114 112 112 92 63 83 316 319 348 25 54 68 346 296 329 325 312 126 114 109 119 120 116 116 125 128 112
355 1 5 5 7 9 11 13 16 16 16 15 5 307 357 7 333 300 44 60 354 24 41 31 10 348 2 30 27 155 112 43 38 31 320 309 323 348 355 343 337 315 307 310 302 294 289 280 266 250 250 254 253 273 309 344 89 88 96 115 112 99 102 108 116 122 261 311 12 47 72 154 254 325 357 350 350 68 104 102 90 89 107 121 129 134 124
355 0 5 7 8 10 11 12 13 15 15 15 15 1 10 14 4 325 30 31 27 30 18 13 11 356 351 5 16 30 196 114 68 33 302 305 338 344 327 315 313 302 304 305 302 303 303 301 300 282 273 261 236 316 10 28 54 50 34 66 101 99 85 90 112 113 149 331 57 102 177 135 42 356 2 4 359 18 75 86 46 19 30 129 131 127 117
356 360 4 8 9 10 11 11 11 14 16 19 23 25 23 22 18 357 13 39 46 27 20 20 3 346 344 2 13 4 326 321 341 311 285 265 295 295 277 302 319 299 297 301 305 318 332 344 1 5 347 349 13 13 10 28 53 50 34 28 72 112 101 59 54 38 133 135 89 103 146 70 35 348 343 8 2 343 7 93 32 359 352 86 117 112 108
355 360 5 9 11 12 12 12 12 13 16 21 26 30 26 22 18 6 347 161 104 35 24 17 344 335 347 10 13 3 343 337 337 300 248 234 239 234 232 281 333 306 304 318 319 329 355 27 36 32 12 21 32 349 345 7 35 44 42 32 41 85 112 130 146 237 124 130 104 79 119 63 349 309 303 309 349 327 329 85 49 351 353 59 108 116 117
355 0 6 9 11 13 14 13 13 12 13 17 20 25 24 19 15 8 339 235 85 54 8 358 353 351 4 13 6 1 353 348 350 333 283 322 18 9 328 339 355 334 324 337 334 346 11 33 60 58 34 36 97 22 351 358 348 8 41 41 35 33 35 69 109 91 31 93 96 66 111 125 312 310 306 312 355 329 338 69 82 312 10 65 84 103 111
356 360 6 9 11 14 15 13 12 11 12 13 15 19 22 19 14 6 333 170 75 58 359 7 16 8 13 16 357 356 359 352 353 340 321 358 20 0 344 345 346 344 1 24 13 21 26 19 78 82 37 313 73 87 21 17 358 341 8 35 32 27 24 29 49 53 27 65 78 62 70 49 311 310 308 303 294 330 19 77 104 230 152 119 108 110 111
355 359 5 9 10 14 16 15 12 11 12 13 17 22 24 24 21 17 8 100 81 60 15 27 40 30 18 19 356 356 7 355 355 342 323 349 13 341 330 343 357 351 4 19 17 28 18 343 115 112 130 287 317 103 73 50 59 357 12 58 46 31 27 21 35 51 16 45 84 87 70 309 295 298 298 294 295 40 62 112 238 136 116 118 113 109 105
354 357 3 8 10 12 15 15 13 12 11 11 14 21 26 26 26 27 27 32 70 63 36 38 52 50 29 24 5 3 20 11 10 9 349 349 337 322 322 4 24 354 352 2 3 16 16 353 356 96 108 306 328 92 79 52 63 36 47 77 63 26 30 27 25 360 349 73 99 99 95 299 298 298 306 328 36 83 70 54 66 77 92 98 95 97 97
354 357 1 6 9 11 14 14 13 12 11 10 11 17 28 26 22 24 24 8 73 76 40 44 59 55 45 47 32 10 16 18 20 23 10 320 311 324 346 24 1 346 5 13 2 354 9 359 340 25 83 37 330 65 79 61 56 41 58 92 68 17 88 77 35 328 7 72 78 91 114 324 323 328 348 7 42 109 101 70 65 62 74 88 89 92 96
354 354 358 5 7 10 13 14 14 13 11 14 17 21 27 20 11 7 5 356 11 104 31 41 76 74 67 67 60 47 39 31 24 24 352 302 308 351 38 5 342 353 13 5 354 337 348 353 341 4 40 24 360 24 58 81 60 19 44 95 52 360 52 103 37 322 39 75 74 110 121 357 353 22 69 49 47 64 60 65 64 50 50 66 73 72 77
353 352 355 1 4 8 12 14 18 19 16 20 25 28 22 10 1 357 358 355 51 133 208 212 105 88 84 76 63 61 62 52 43 39 15 316 322 36 61 7 350 358 5 18 22 335 333 351 353 13 31 20 5 2 8 69 88 12 25 75 58 40 89 99 63 36 74 104 121 117 99 52 30 50 76 69 62 63 64 67 62 47 42 51 60 61 58
352 351 352 356 358 4 10 11 20 25 23 24 25 22 15 5 356 356 357 353 100 149 224 224 82 71 72 68 55 46 56 63 57 46 39 21 347 14 51 36 345 325 343 36 61 281 306 322 307 27 54 20 350 4 19 40 67 33 37 69 88 96 101 98 89 86 83 78 79 82 82 72 61 63 69 67 66 68 74 77 75 66 56 54 59 64 59
351 350 350 353 354 357 3 6 18 25 24 27 25 18 17 14 5 4 2 359 36 55 320 9 45 35 40 60 54 38 39 52 59 54 52 54 46 11 8 7 339 334 331 310 276 258 304 308 313 39 64 19 353 39 53 36 32 53 56 50 42 59 74 82 105 123 105 80 78 87 94 97 89 80 74 70 68 68 72 80 88 87 79 71 69 68 63
350 350 349 348 347 351 356 360 11 20 20 27 29 26 25 19 10 11 12 1 6 40 23 14 360 283 48 55 53 48 44 39 39 50 61 61 58 38 299 299 275 223 260 285 311 23 12 347 27 44 48 26 21 38 47 33 38 65 67 45 6 21 47 69 90 97 98 109 120 113 99 95 94 89 83 80 81 83 83 86 94 95 93 91 88 83 78
346 346 347 344 340 343 350 355 3 10 13 18 22 20 17 7 4 15 25 7 331 332 106 65 231 146 81 61 45 53 55 39 23 33 53 54 41 9 340 334 307 242 253 288 1 40 22 20 53 55 28 11 25 23 5 13 38 60 63 38 10 33 43 65 96 95 94 115 130 124 103 88 81 84 95 104 106 105 106 103 100 100 101 101 96 94 96
341 342 344 343 338 336 343 352 358 360 2 2 360 5 9 8 9 22 33 27 7 29 53 2 240 109 67 50 54 61 58 42 24 24 34 40 36 18 7 6 2 341 338 346 11 44 45 34 33 41 27 349 347 347 341 26 57 67 52 11 15 55 57 57 89 99 104 128 132 128 118 106 100 105 120 129 128 124 118 112 107 106 107 108 102 97 95
339 341 344 346 344 337 338 348 351 351 354 346 326 349 27 37 28 25 39 47 49 83 227 285 274 124 21 15 52 71 69 55 36 25 20 22 34 35 17 6 11 5 354 4 25 41 64 54 6 348 19 16 355 341 333 22 62 66 44 10 29 83 98 96 101 114 147 159 136 129 125 127 139 143 138 137 139 135 127 122 121 115 105 104 104 102 102
337 340 345 348 345 336 333 344 347 352 4 0 343 346 46 58 26 16 39 61 46 15 251 274 342 137 169 31 37 49 68 67 44 23 21 8 3 18 21 16 18 3 343 10 49 53 82 87 47 15 46 88 75 334 336 32 68 77 88 77 68 79 95 102 106 117 133 124 107 111 114 115 121 115 96 75 79 93 102 103 99 89 90 96 94 83 90
336 341 343 345 343 335 330 338 342 4 15 12 360 343 30 64 8 2 17 52 44 16 22 71 23 259 174 92 39 356 9 67 57 358 351 332 314 8 37 36 20 4 360 21 43 54 71 31 35 54 27 63 97 34 348 47 74 54 55 71 67 65 74 85 95 103 107 104 100 98 98 99 97 92 85 81 86 88 84 78 76 73 79 88 86 71 71
338 340 339 342 345 333 315 320 360 34 29 19 8 5 137 233 340 348 358 19 33 24 37 121 224 246 324 80 88 322 338 52 101 338 328 324 325 49 60 56 28 21 30 25 12 36 69 18 14 44 16 32 69 60 16 68 83 47 51 61 58 63 75 83 95 103 105 112 116 106 95 96 94 81 67 78 97 103 105 95 91 89 87 90 93 90 83
340 338 338 341 340 325 288 113 70 52 40 29 33 89 136 295 327 339 351 5 5 348 8 341 309 158 71 297 237 294 339 346 106 180 315 327 1 47 61 90 89 53 67 86 7 353 115 99 43 39 2 16 60 49 44 78 119 170 102 79 60 52 57 60 74 86 80 86 104 107 97 95 107 113 112 99 105 115 123 116 107 107 111 114 114 112 121
337 336 336 338 336 198 157 161 182 222 24 35 70 126 241 316 328 337 352 7 347 315 317 20 307 229 146 275 269 356 358 333 324 113 346 319 346 39 30 77 116 88 53 78 76 281 283 76 79 56 342 360 67 59 40 95 143 143 113 95 81 67 52 36 41 59 61 59 72 90 96 93 105 122 133 129 114 112 116 123 126 127 131 136 132 134 160
334 332 336 348 136 152 167 175 176 280 312 311 244 236 291 316 324 334 355 11 349 312 305 56 265 289 355 7 320 338 351 330 328 82 6 313 338 28 355 313 19 36 358 328 172 56 18 25 62 75 333 343 60 66 348 181 122 112 106 105 104 93 70 36 36 63 72 65 66 78 90 90 94 103 113 121 118 110 116 137 148 147 141 144 146 157 177
328 323 329 151 157 151 139 128 154 273 287 289 253 249 287 306 310 322 11 25 24 358 321 322 173 258 13 80 13 318 331 349 355 24 73 295 331 4 357 356 22 15 271 264 5 52 38 290 52 72 39 3 44 68 276 38 68 83 92 105 116 114 107 97 94 99 98 89 82 83 79 68 90 129 138 137 141 141 143 151 148 129 119 127 124 125 145
321 299 186 153 148 138 124 130 264 282 279 284 301 315 329 326 308 264 146 92 110 163 288 318 313 295 62 108 116 319 340 4 340 335 40 53 349 328 28 49 31 293 253 324 39 33 268 231 35 35 16 350 67 129 100 74 63 61 63 67 91 118 140 168 161 129 110 99 86 79 62 18 331 213 158 156 170 161 140 131 125 119 126 156 158 118 119
297 172 125 110 93 53 278 239 177 78 341 310 322 336 346 348 332 273 212 204 210 217 231 360 331 311 15 103 115 328 347 3 335 356 32 31 326 316 21 55 46 293 327 33 53 325 273 244 96 63 303 262 193 124 98 84 75 68 61 48 38 49 83 147 141 117 107 113 113 105 102 308 298 294 139 154 179 161 142 137 131 126 131 142 136 124 116
192 138 112 82 22 350 269 237 174 51 352 337 358 359 332 319 360 297 246 170 175 219 225 70 358 338 27 70 26 336 347 340 352 27 36 327 324 360 16 33 77 300 6 18 308 279 313 360 109 132 283 337 47 73 79 80 79 72 61 49 37 31 29 57 122 121 126 151 152 122 91 290 290 321 58 215 240 178 151 136 121 119 140 140 130 120 106
145 130 140 290 276 269 264 227 97 64 42 13 25 15 284 208 111 294 272 118 116 268 350 60 21 1 47 74 32 351 5 8 16 32 29 14 43 44 8 353 360 41 45 347 303 322 2 346 360 75 35 5 20 38 49 64 71 63 52 51 48 38 22 9 67 133 142 147 139 135 161 250 276 343 358 347 4 67 136 136 133 152 179 148 133 126 119
157 227 270 253 180 208 203 156 111 67 30 333 245 181 279 233 132 138 288 60 99 19 36 78 215 324 38 63 40 352 355 8 32 38 6 4 85 94 17 15 359 33 47 348 307 2 35 331 358 54 38 338 8 41 42 49 58 56 57 60 47 31 19 4 353 60 161 154 147 161 187 196 143 60 37 47 50 34 53 159 161 164 155 141 137 143 154
331 302 296 316 27 94 124 125 118 17 351 332 252 358 7 317 293 205 116 76 62 62 30 19 31 22 18 31 49 34 346 340 355 67 34 342 301 19 24 342 279 40 52 332 293 33 52 330 13 65 105 269 53 63 51 48 47 35 37 60 56 37 20 2 349 340 150 133 114 113 143 110 83 59 38 44 50 17 323 233 153 145 151 156 161 166 175
32 342 323 324 353 89 116 139 254 261 331 29 352 336 359 240 295 360 81 92 99 106 24 352 39 66 21 7 48 91 351 324 330 55 64 310 265 138 65 348 360 60 36 293 333 28 20 341 22 67 82 322 45 64 60 58 52 33 24 45 53 37 18 6 355 350 63 92 69 27 46 82 84 71 55 52 360 298 268 223 143 122 140 155 151 131 140
110 329 320 316 296 168 178 239 260 95 46 37 46 23 334 260 248 101 108 122 58 78 205 269 71 78 33 2 43 97 76 14 357 39 51 284 268 75 55 15 30 62 287 310 18 30 320 357 44 91 263 337 30 66 73 68 61 46 30 36 48 40 23 19 11 2 38 84 75 31 12 46 68 89 100 111 273 268 208 155 140 109 113 154 208 160 161
21 283 250 278 266 180 170 295 308 47 42 60 158 180 224 218 162 88 95 128 36 46 301 304 37 58 27 314 76 80 63 40 33 32 17 351 12 45 54 10 17 22 337 354 357 319 342 44 51 267 252 20 39 51 58 62 69 61 29 21 34 33 18 26 28 14 10 35 47 347 302 305 53 104 84 315 287 232 132 129 138 172 236 279 298 246 172
1 253 164 56 340 336 76 325 292 254 180 203 216 218 147 113 94 85 107 149 144 113 9 357 27 43 27 262 87 62 352 354 71 63 93 52 28 22 94 35 356 355 21 3 324 328 24 34 302 320 19 54 48 40 45 53 68 80 62 27 22 20 14 30 64 49 4 344 337 330 323 325 303 174 201 260 286 138 137 146 164 186 212 254 286 281 214
280 246 108 73 331 290 245 161 227 238 213 180 150 78 73 82 79 68 63 63 71 81 69 30 28 31 356 305 53 62 19 91 70 16 122 101 76 292 103 60 16 17 31 339 300 355 61 349 313 347 22 30 17 22 41 42 37 53 64 38 6 25 36 26 26 70 101 350 326 332 328 322 323 321 271 283 287 165 188 192 190 195 204 216 237 259 242
275 265 92 87 282 269 233 200 213 234 35 75 79 76 84 95 89 63 49 44 49 60 53 28 20 18 355 349 52 53 33 67 69 324 71 95 111 275 71 62 19 22 61 290 298 46 71 293 311 343 15 31 18 9 16 25 24 32 43 24 2 52 81 27 4 77 109 136 241 315 309 300 304 321 315 296 275 254 253 241 223 219 213 208 216 247 260
289 302 96 96 141 190 224 229 215 140 75 73 74 69 75 89 92 78 65 55 50 49 38 20 12 4 346 355 71 158 359 76 97 279 62 86 85 30 50 31 293 240 198 210 140 96 199 228 297 347 343 7 25 356 341 17 33 25 16 9 359 360 351 285 247 168 157 166 137 14 338 326 331 336 324 306 288 287 302 307 286 264 248 224 220 240 254
271 265 241 252 241 244 246 223 133 94 70 69 82 78 73 81 86 74 58 62 68 61 53 62 70 36 320 318 6 347 328 103 108 359 51 88 95 87 86 224 251 269 277 175 127 147 250 218 140 36 303 318 7 336 319 33 94 244 264 259 262 286 310 312 292 265 241 212 189 196 248 284 318 343 356 356 333 313 318 328 309 283 268 261 254 246 246
304 291 250 264 301 312 331 27 80 84 56 44 54 67 80 95 92 49 17 42 81 64 32 48 89 88 304 320 20 3 340 24 53 56 138 146 164 163 169 209 243 299 360 41 126 177 288 345 44 3 324 337 327 294 286 264 217 243 263 265 257 259 268 273 281 283 263 231 211 211 222 229 243 271 329 336 302 286 273 273 279 271 256 247 254 260 263
338 257 258 259 263 273 345 61 81 91 83 70 55 46 63 92 101 49 358 21 72 69 22 327 130 91 16 347 48 39 9 10 7 352 252 253 82 140 194 238 146 97 48 329 240 154 68 41 32 18 359 341 317 308 331 335 328 324 320 303 281 265 270 280 288 291 271 235 215 217 224 226 234 243 234 233 259 265 243 233 256 267 255 239 243 248 254
233 256 269 266 256 234 142 104 87 86 96 104 106 77 67 89 117 120 23 27 54 75 264 237 110 100 146 210 14 34 60 212 347 7 356 348 360 109 187 152 133 134 172 300 353 54 65 53 27 2 323 303 301 338 355 328 317 325 333 323 315 352 13 316 306 305 294 251 214 214 221 224 232 241 233 222 237 257 248 232 240 267 282 271 262 251 247
Height
795 793 791 788 785 782 780 777 775 771 768 764 763 763 761 760 758 751 749 751 750 755 761 759 757 757 754 749 747 744 741 739 736 733 729 721 715 717 718 716 717 717 716 717 716 716 714 710 713 722 723 720 718 715 712 714 716 719 725 724 715 717 727 731 728 719 713 711 706 703 706 710 715 723 725 725 726 724 724 731 735 743 754 756 760 774 776
795 792 790 787 784 782 779 777 775 772 770 767 766 765 761 759 756 750 750 750 749 756 763 762 761 759 754 752 751 747 742 740 738 737 735 727 721 723 724 719 718 717 716 720 720 717 716 712 709 715 720 718 714 712 711 716 721 723 724 722 718 724 735 739 740 736 729 724 720 718 721 726 732 734 731 730 730 723 717 721 730 742 750 750 759 775 777
794 791 789 786 783 781 778 776 774 772 770 768 767 766 763 759 755 750 749 749 750 758 763 762 763 761 760 760 756 750 744 740 740 739 734 727 723 726 726 722 721 718 717 722 720 715 717 717 711 712 716 716 712 711 712 715 720 722 722 718 719 729 736 738 746 751 747 745 743 740 739 738 739 738 736 736 737 732 727 725 732 742 745 744 756 773 779
793 790 788 785 782 780 777 774 772 770 769 767 766 766 763 760 756 753 752 751 752 758 759 758 763 763 764 764 759 754 751 744 740 739 736 730 725 725 724 722 723 723 723 726 725 718 717 718 717 717 720 718 711 708 710 714 717 719 722 721 723 732 735 735 743 747 744 746 748 742 739 742 746 744 741 743 745 743 739 736 742 750 750 751 758 765 774
792 789 787 785 782 779 776 773 770 768 767 765 764 764 762 760 758 756 757 757 757 760 759 759 762 762 763 766 762 758 757 751 744 741 738 736 733 730 727 726 731 735 732 732 733 727 722 723 726 726 725 721 712 707 710 713 714 716 720 722 726 738 743 739 739 740 737 737 740 739 738 742 746 745 745 750 750 750 752 756 760 757 752 758 762 760 769
792 789 787 784 781 778 775 771 768 765 764 763 762 761 759 758 756 754 756 760 762 763 762 760 761 762 762 765 764 760 757 755 753 748 741 738 739 739 739 737 739 742 740 738 741 739 734 735 736 733 731 729 722 717 716 718 718 718 719 720 725 738 744 741 740 739 736 734 735 738 740 742 745 746 749 754 755 755 761 767 766 755 748 757 762 762 770
791 789 787 784 782 779 775 771 767 764 762 760 760 760 758 756 757 754 755 759 761 760 759 758 761 763 762 763 764 762 759 756 755 751 747 747 745 745 750 749 745 744 741 740 745 747 745 746 744 739 738 738 734 729 725 724 724 725 726 728 732 738 740 740 742 739 734 734 737 737 738 742 747 748 748 754 757 758 761 765 763 756 755 760 763 767 773
791 789 787 785 782 779 776 772 769 765 761 759 760 762 761 760 761 759 758 759 757 755 755 757 761 764 763 764 764 761 760 759 755 750 750 755 752 748 751 752 747 745 743 742 747 748 746 749 746 741 741 740 737 734 730 729 731 732 733 735 738 742 744 746 749 744 735 731 732 733 735 738 744 747 748 752 757 758 760 763 761 761 768 771 769 773 778
791 789 787 785 782 780 777 774 771 767 764 763 763 764 763 763 762 761 762 762 756 753 755 757 761 764 764 765 764 762 761 759 756 753 750 752 754 751 751 752 748 746 745 746 748 746 743 744 741 738 740 739 735 730 727 728 732 734 735 739 741 745 747 750 754 756 748 739 734 733 732 735 744 754 761 761 758 757 759 760 760 765 774 779 778 780 783
791 789 787 785 783 781 778 776 773 770 768 767 768 767 764 764 762 761 764 765 758 754 756 758 762 765 763 762 762 762 762 757 757 759 755 751 752 751 750 751 751 750 750 750 748 744 741 739 735 733 733 732 728 725 721 721 725 730 736 741 745 746 748 753 759 763 761 755 747 739 736 744 758 768 773 770 761 756 759 762 763 766 770 776 781 783 781
792 789 788 785 783 782 779 777 775 773 771 770 771 770 767 766 766 763 765 767 761 756 757 760 762 762 759 759 760 760 760 758 758 761 761 756 753 751 750 751 753 753 751 747 743 740 737 733 730 728 728 727 724 721 717 716 719 726 732 739 746 747 747 755 763 766 767 762 751 744 750 764 773 773 772 769 760 754 759 763 765 767 767 771 778 780 779
792 790 788 786 784 782 780 778 777 775 773 772 772 771 769 768 767 765 765 767 763 760 761 762 761 759 758 758 759 759 759 758 757 759 760 757 754 752 751 752 754 753 747 742 739 736 733 730 726 725 725 725 722 720 718 720 723 726 727 733 745 749 747 754 763 766 769 765 756 757 768 775 776 773 771 768 761 754 757 763 768 770 770 771 776 779 781
792 790 788 786 785 783 781 779 778 776 774 773 771 771 770 768 767 766 766 768 767 765 766 765 762 761 761 758 757 758 757 756 756 756 757 756 755 753 751 750 751 748 743 740 738 736 734 731 727 727 726 722 721 724 726 729 733 734 731 732 740 747 750 754 759 763 767 766 764 769 774 774 775 777 775 772 770 765 764 771 779 781 776 772 776 781 784
792 790 789 787 785 783 782 780 778 776 775 773 772 772 771 769 769 768 769 771 771 769 768 769 767 765 763 760 759 759 758 757 757 757 756 755 754 752 750 747 746 744 741 740 738 737 737 736 734 735 735 732 733 737 736 734 736 739 739 737 738 744 750 755 760 764 764 765 770 774 773 774 780 783 781 783 785 782 776 780 788 788 781 777 779 786 792
793 791 789 788 786 784 782 780 779 777 775 774 773 773 772 771 770 770 770 771 771 771 770 772 771 768 765 763 762 762 762 761 760 758 755 753 751 749 747 744 743 742 740 740 741 740 739 740 742 745 747 748 751 751 747 742 740 739 741 742 741 742 747 752 759 764 762 764 772 775 774 780 788 788 785 785 788 787 780 781 790 792 787 784 784 788 794
793 791 789 788 786 785 783 781 780 778 777 775 774 773 773 772 770 770 770 768 770 774 775 772 770 769 768 767 766 765 766 765 764 762 757 753 751 748 745 743 742 742 741 742 743 743 742 742 745 751 754 753 754 756 753 751 750 744 740 743 745 747 750 752 756 763 765 766 771 776 781 789 793 790 785 781 783 785 781 783 793 796 791 790 790 791 794
793 791 789 788 787 785 784 783 781 779 778 777 775 774 774 773 771 770 770 769 771 776 776 771 770 772 772 772 771 769 768 768 767 767 764 758 755 752 748 745 743 742 742 745 746 746 748 746 745 752 756 751 749 754 756 756 758 754 747 748 753 756 760 761 762 768 771 771 777 786 793 795 793 788 784 781 779 779 780 788 795 792 789 792 793 793 794
793 791 790 788 787 786 785 784 782 780 779 778 777 776 775 774 773 771 770 770 773 776 776 772 773 775 775 776 775 772 771 772 771 770 768 763 758 758 754 750 748 746 745 748 751 750 751 748 744 749 756 750 746 752 756 756 759 758 755 759 763 765 768 770 772 774 774 775 785 795 798 796 791 787 784 779 775 779 789 796 794 788 788 792 791 792 795
793 791 790 788 787 786 785 784 783 782 781 779 778 777 776 776 774 772 772 773 775 777 777 775 775 777 776 776 776 775 774 775 774 775 776 772 765 760 755 751 752 753 751 753 753 750 750 749 742 742 751 752 748 750 755 756 757 757 759 765 770 772 775 776 779 779 775 777 788 798 800 796 789 784 780 776 780 793 801 797 791 788 790 792 791 793 796
793 792 790 789 788 787 786 785 784 783 782 781 779 778 777 778 776 775 777 778 777 778 778 776 776 777 777 777 778 778 777 777 778 779 782 780 769 762 762 762 760 759 759 761 761 755 754 755 748 744 750 754 750 751 757 759 759 758 761 767 771 773 777 781 785 783 778 781 793 803 805 798 787 783 784 785 791 799 799 793 792 793 793 793 794 795 796
794 792 790 789 788 787 786 785 784 783 782 782 781 779 779 779 778 777 777 778 778 778 779 778 777 777 778 778 778 779 778 779 780 780 781 780 771 768 774 776 770 767 767 769 769 764 760 759 755 752 754 755 753 755 760 763 763 761 759 764 770 772 774 782 787 785 784 793 802 804 803 799 790 789 795 799 800 799 797 796 799 800 799 799 799 799 800
794 792 791 790 789 788 787 786 785 785 784 783 782 780 780 780 779 778 777 776 777 778 779 778 777 777 778 778 778 779 778 778 779 779 779 778 774 773 777 777 774 772 771 771 774 773 768 765 762 760 761 763 762 761 761 763 767 766 761 765 773 776 775 780 787 787 787 795 800 798 798 799 796 796 800 802 802 801 801 803 805 807 807 805 804 805 805
794 792 791 790 789 788 788 787 786 786 785 784 783 782 782 781 780 779 778 777 777 778 778 777 778 778 778 778 779 779 778 778 779 778 778 778 777 776 777 777 776 774 771 772 776 776 773 770 765 762 767 772 770 767 766 767 769 770 768 769 773 775 775 778 786 789 790 793 796 796 798 801 800 800 802 802 803 805 805 806 809 811 811 809 808 809 810
794 792 791 790 789 789 788 788 787 787 786 785 785 784 783 783 782 780 779 778 778 779 779 779 779 780 779 779 780 779 779 779 779 778 778 778 779 779 778 777 777 776 774 773 772 771 771 770 766 764 771 776 773 771 772 772 770 771 773 774 774 773 774 779 786 791 795 800 801 798 799 802 801 802 804 804 805 807 807 808 810 812 812 812 812 812 813
794 793 791 790 790 789 789 788 788 788 787 786 786 785 784 784 784 782 782 782 782 783 784 784 782 780 780 780 780 780 780 780 779 779 779 778 779 780 779 777 775 776 775 772 770 770 771 770 769 771 775 776 774 773 774 774 772 772 777 782 780 776 776 783 789 791 795 801 801 797 799 801 801 803 805 806 808 809 809 810 811 811 812 814 814 815 816
794 793 791 790 790 789 789 789 788 788 788 787 787 786 785 785 785 784 783 784 783 783 784 785 782 780 780 780 780 780 780 781 780 779 779 779 778 778 777 776 774 774 774 771 770 771 772 773 775 777 778 778 777 776 774 774 775 776 781 784 781 778 781 786 791 795 798 801 800 799 802 804 803 804 806 807 808 810 810 811 812 812 813 814 815 816 818
794 793 791 790 790 789 789 789 789 788 788 787 787 786 786 786 786 785 784 785 784 785 787 785 782 780 780 780 780 781 781 781 781 780 780 780 779 778 777 776 776 775 774 773 772 773 776 778 780 780 781 780 779 776 774 773 775 780 786 785 781 783 789 791 793 800 804 802 799 800 805 808 807 806 806 807 808 809 811 812 813 813 814 815 816 818 819
793 792 791 790 790 789 789 789 789 788 788 788 787 787 787 787 787 786 786 785 785 788 791 788 783 782 782 781 781 781 781 782 782 781 781 780 779 779 778 777 777 777 776 775 775 777 780 783 783 782 783 784 783 781 777 776 780 788 791 788 784 787 791 792 795 801 804 801 797 799 803 806 806 806 806 807 808 809 811 812 813 814 815 816 818 820 820
793 791 791 790 789 789 789 789 789 788 788 788 787 787 787 787 787 787 787 786 786 788 789 787 784 783 784 783 781 781 781 782 782 782 781 781 780 779 779 778 779 779 777 777 778 780 782 784 784 784 785 786 787 787 783 782 788 794 793 789 787 788 789 790 794 798 799 799 798 800 802 804 805 806 807 808 808 810 812 813 814 815 816 817 819 821 822
792 791 790 790 789 789 789 789 789 789 788 788 787 787 788 788 788 787 787 787 787 787 787 788 787 784 782 782 782 782 781 781 782 782 781 781 780 780 780 780 780 780 779 779 779 781 782 783 784 785 785 785 786 788 787 788 793 795 792 790 791 791 791 792 794 796 798 799 800 801 803 804 805 806 808 809 810 812 814 815 816 817 818 819 821 822 823
792 791 790 789 789 789 789 789 789 789 789 788 787 788 790 790 789 788 787 787 787 787 788 789 787 784 783 783 783 782 781 781 782 782 781 781 781 781 781 781 781 781 781 782 782 782 783 785 785 786 785 785 787 788 789 792 797 797 793 792 794 794 794 795 795 795 798 799 800 802 805 805 806 808 810 811 812 813 816 817 818 818 820 821 822 823 825
791 791 790 789 789 789 789 789 790 789 789 789 789 790 791 791 790 788 787 787 787 786 788 789 787 785 786 786 783 781 781 781 781 782 783 782 781 781 781 781 782 782 782 783 784 784 784 785 787 787 786 786 787 788 790 795 799 797 794 794 795 796 797 798 797 798 799 800 802 805 808 808 809 810 812 812 813 814 816 817 818 819 821 822 823 824 826
791 790 790 789 789 789 789 790 790 790 790 790 790 790 790 790 790 789 787 787 787 786 787 789 788 785 785 786 784 782 782 782 781 782 784 783 781 782 782 781 781 783 784 785 786 786 785 785 787 788 787 787 787 789 792 794 794 793 794 795 797 798 799 799 799 800 801 802 804 807 810 810 810 811 812 813 814 815 816 818 819 820 821 822 823 825 826
791 790 790 789 789 789 790 790 790 791 790 790 790 790 789 789 789 788 788 788 788 787 787 788 787 785 785 787 786 784 783 784 783 783 785 785 782 783 784 783 782 784 786 786 785 786 786 787 788 789 789 788 789 792 794 793 791 792 794 796 797 798 800 801 802 802 803 804 806 808 809 810 810 811 812 813 814 815 816 817 819 820 821 822 823 824 825
790 790 790 789 789 790 790 790 791 791 791 790 790 789 789 789 788 788 789 789 789 790 789 787 786 786 787 789 790 787 784 784 784 784 784 785 784 783 784 784 785 787 787 786 785 787 789 789 789 791 792 791 792 794 794 793 791 792 795 797 798 799 801 802 803 804 804 805 807 808 809 810 810 811 812 813 814 815 816 817 818 820 821 822 823 823 824
790 789 789 790 790 791 791 791 791 791 790 791 790 789 789 789 788 788 789 789 790 792 791 789 787 785 785 789 791 788 785 786 786 784 783 785 786 785 784 786 789 789 786 785 787 789 789 789 790 792 793 793 794 794 793 793 794 795 796 798 799 799 800 801 802 803 805 806 808 809 810 811 811 811 812 813 814 814 815 816 818 819 820 821 822 823 824
790 790 791 791 791 792 792 791 791 790 790 790 790 789 789 789 788 789 789 789 789 790 790 791 789 785 783 786 790 788 788 788 787 786 787 789 789 787 785 788 792 791 788 788 791 792 789 788 791 794 794 792 792 792 791 792 795 797 797 798 799 799 800 801 801 803 805 807 808 809 810 811 812 811 811 812 812 813 814 816 817 818 819 820 821 823 823
791 791 792 792 792 792 792 791 790 790 790 790 790 790 790 789 790 790 789 789 790 790 788 789 790 787 785 788 791 790 790 790 789 789 792 793 791 790 790 791 793 793 791 791 792 791 790 789 790 792 794 794 793 793 793 793 795 796 798 799 800 801 801 801 802 803 806 808 809 810 811 812 812 811 811 812 812 812 813 814 815 817 818 819 820 821 822
792 793 793 793 793 792 791 791 790 790 790 790 791 791 790 789 790 790 787 787 789 789 787 789 791 789 788 791 793 792 791 791 793 794 794 793 794 795 795 794 793 793 795 796 794 793 794 793 790 792 798 800 798 796 796 796 796 798 799 800 801 802 802 803 803 803 805 807 809 810 811 812 812 812 812 812 812 813 813 813 814 815 817 818 819 820 821
793 793 792 792 792 792 791 790 790 791 791 791 791 791 790 788 789 789 788 788 789 789 789 790 790 789 789 791 793 793 793 793 795 795 795 795 796 796 797 797 795 795 798 800 796 794 796 796 793 796 804 805 800 798 798 798 799 800 801 801 802 802 803 803 804 803 804 805 807 808 809 810 810 811 812 812 812 813 814 813 813 814 816 817 818 819 820
793 793 792 792 792 792 792 791 791 792 792 791 792 792 791 790 788 786 787 790 792 791 790 790 791 791 791 791 793 795 795 794 793 793 795 797 797 798 798 797 796 798 802 801 796 794 797 798 798 802 807 805 801 799 800 801 801 802 802 802 803 803 803 804 804 804 804 804 806 807 808 809 809 810 811 812 812 813 814 814 814 814 815 816 817 818 819
794 793 793 793 792 792 792 793 793 792 792 793 794 793 792 791 790 788 789 792 792 792 791 792 792 793 793 792 792 794 795 795 793 793 796 798 798 798 798 797 798 803 806 801 795 796 800 801 802 806 808 805 802 802 802 803 803 804 804 804 804 804 804 805 805 805 805 805 806 808 809 809 809 810 811 812 812 813 813 813 814 814 815 816 817 817 818
794 793 794 793 792 792 793 793 792 792 793 796 797 798 796 793 789 788 790 791 791 791 793 793 791 792 794 793 793 794 795 796 795 795 796 797 797 797 800 801 803 805 804 799 798 802 804 805 808 810 808 804 803 803 803 804 804 805 806 806 805 805 805 806 807 807 807 806 807 809 810 809 809 810 810 811 812 812 812 812 813 814 815 816 816 817 818
793 793 793 793 792 792 794 794 793 794 797 798 797 797 797 794 789 788 791 792 791 791 793 793 792 793 795 795 794 796 797 797 797 798 799 799 799 800 804 807 806 803 803 803 804 805 805 808 811 811 807 804 804 804 804 805 806 806 807 807 806 806 806 806 807 809 809 808 808 809 809 809 809 810 810 811 811 812 812 812 813 814 815 815 816 817 817
793 792 793 794 794 794 795 796 795 795 796 795 792 789 790 790 790 790 791 791 791 792 794 793 792 794 796 795 795 797 798 797 799 800 801 802 804 806 806 806 805 803 806 809 810 808 809 813 813 809 806 806 806 805 805 806 806 806 807 807 807 807 807 807 807 809 811 811 811 810 810 809 809 810 810 811 811 811 812 812 813 814 815 815 816 816 816
794 791 792 795 796 795 794 796 796 794 790 787 785 784 785 788 790 790 789 789 791 793 795 794 794 796 797 795 795 797 797 798 800 800 799 804 809 808 804 805 807 810 813 815 813 812 815 817 814 809 809 809 807 806 806 807 806 807 808 808 808 808 808 808 808 809 811 812 813 811 811 810 810 810 810 810 810 811 811 812 812 813 814 814 815 815 815
793 790 790 794 795 794 793 793 792 788 783 781 782 784 786 788 790 791 791 792 793 794 795 795 796 797 797 797 797 798 797 799 801 801 800 804 807 805 804 808 814 816 818 819 818 816 817 817 813 810 809 809 808 808 808 807 807 808 808 808 808 808 808 808 808 809 810 811 812 812 812 812 811 810 810 810 810 810 811 811 811 812 812 813 813 814 815
793 791 792 794 794 792 790 788 785 782 782 782 783 784 785 787 791 793 794 794 794 796 797 798 800 800 800 799 799 800 799 801 803 803 801 803 807 810 812 816 818 815 813 815 817 817 816 814 812 810 810 809 808 809 809 808 809 809 809 809 809 809 808 808 808 809 809 810 811 812 813 812 811 811 811 810 810 810 811 811 811 811 812 812 812 813 814
794 793 794 793 790 786 783 781 782 783 784 784 784 786 788 791 793 795 795 795 796 798 799 799 802 804 804 801 800 800 801 802 804 804 803 806 811 815 818 821 820 816 812 811 813 813 812 810 809 810 809 809 809 809 809 809 809 809 809 808 808 808 808 808 808 808 808 808 809 810 810 811 812 812 811 810 810 811 811 811 811 811 811 811 812 812 812
794 794 794 792 790 787 783 781 783 786 787 787 787 789 791 794 796 796 796 796 798 799 800 801 803 804 804 803 804 806 805 803 803 805 807 809 810 812 815 819 819 816 813 811 810 810 809 808 809 809 809 808 809 809 808 808 809 808 808 808 808 807 807 807 807 807 807 807 807 807 808 809 810 810 810 810 811 811 811 811 811 811 811 811 811 811 811
795 795 793 791 791 790 787 787 788 790 790 791 792 792 793 795 798 798 797 797 798 800 802 803 803 804 806 808 809 810 809 806 806 807 809 808 806 809 814 817 814 812 812 811 809 808 808 809 809 810 809 809 809 809 808 809 809 808 807 807 807 807 807 807 806 806 806 806 806 806 806 807 808 808 808 810 811 811 810 810 810 810 809 809 809 810 810
795 794 791 788 787 786 786 788 790 790 791 792 794 793 794 796 799 798 798 798 800 802 803 802 802 805 809 811 810 809 809 809 810 810 810 808 806 808 811 812 810 810 810 809 808 808 810 810 810 810 810 809 809 809 809 809 809 808 807 807 807 807 807 807 806 806 805 805 805 805 805 805 806 806 807 808 809 809 809 808 808 808 808 808 808 808 809